DLH1LC EDDF-LIEO

Flight info

Callsign DLH1LC
Flight time 1h 38m
Altitude 35000
Route ANEKI2L/18 ANEKI Y163 NATOR DCT TRA DCT RIPUS DCT GERSA DCT SOSON DCT ODINA DCT KEMMI DCT DEVOX DCT ANAKI DCT TORTU DCT OKROK DCT AJO A9 CORSI
Aircraft A321/M-SDE3FGHIRWY/LB1

Departure

Time 2026-05-06 13:55
Airport Frankfurt Main Airport (EDDF)

Arrival

Time 2026-05-06 15:34
Airport Olbia Costa Smeralda Airport (LIEO)
Time Latitude Longitude Altitude Speed Heading
2026-05-06 12:48 50.04753 8.56881 364 ft 0 kts 294°
2026-05-06 13:40 50.04753 8.56882 356 ft 1 kts 294°
2026-05-06 13:40 50.04745 8.56909 358 ft 3 kts 292°
2026-05-06 13:40 50.04737 8.56938 363 ft 1 kts 295°
2026-05-06 13:41 50.04730 8.56964 363 ft 3 kts 267°
2026-05-06 13:41 50.04736 8.56990 361 ft 3 kts 218°
2026-05-06 13:41 50.04748 8.57002 365 ft 2 kts 204°
2026-05-06 13:41 50.04729 8.56988 365 ft 3 kts 204°
2026-05-06 13:42 50.04710 8.56974 361 ft 3 kts 205°
2026-05-06 13:42 50.04690 8.56961 359 ft 3 kts 205°
2026-05-06 13:42 50.04671 8.56947 358 ft 3 kts 205°
2026-05-06 13:42 50.04657 8.56937 358 ft 0 kts 205°
2026-05-06 13:45 50.04651 8.56932 364 ft 2 kts 205°
2026-05-06 13:46 50.04627 8.56919 359 ft 5 kts 196°
2026-05-06 13:46 50.04586 8.56903 361 ft 7 kts 193°
2026-05-06 13:46 50.04551 8.56890 362 ft 5 kts 193°
2026-05-06 13:46 50.04507 8.56874 359 ft 8 kts 193°
2026-05-06 13:47 50.04456 8.56835 363 ft 9 kts 231°
2026-05-06 13:47 50.04429 8.56732 360 ft 12 kts 249°
2026-05-06 13:47 50.04397 8.56598 362 ft 14 kts 249°
2026-05-06 13:47 50.04359 8.56441 363 ft 16 kts 249°
2026-05-06 13:48 50.04320 8.56276 362 ft 17 kts 250°
2026-05-06 13:48 50.04278 8.56102 362 ft 18 kts 249°
2026-05-06 13:48 50.04234 8.55920 357 ft 18 kts 250°
2026-05-06 13:48 50.04189 8.55728 357 ft 19 kts 250°
2026-05-06 13:49 50.04141 8.55529 356 ft 20 kts 249°
2026-05-06 13:49 50.04093 8.55328 358 ft 20 kts 249°
2026-05-06 13:49 50.04062 8.55197 356 ft 19 kts 249°
2026-05-06 13:49 50.04000 8.54941 355 ft 20 kts 249°
2026-05-06 13:50 50.03968 8.54806 356 ft 21 kts 249°
2026-05-06 13:50 50.03916 8.54587 353 ft 22 kts 249°
2026-05-06 13:50 50.03870 8.54398 351 ft 14 kts 246°
2026-05-06 13:50 50.03812 8.54263 348 ft 16 kts 238°
2026-05-06 13:51 50.03771 8.54102 350 ft 17 kts 250°
2026-05-06 13:51 50.03729 8.53928 346 ft 17 kts 249°
2026-05-06 13:51 50.03686 8.53746 350 ft 18 kts 249°
2026-05-06 13:51 50.03640 8.53564 337 ft 18 kts 247°
2026-05-06 13:52 50.03601 8.53407 336 ft 15 kts 250°
2026-05-06 13:52 50.03564 8.53251 336 ft 17 kts 250°
2026-05-06 13:52 50.03523 8.53077 337 ft 18 kts 249°
2026-05-06 13:52 50.03479 8.52899 336 ft 15 kts 247°
2026-05-06 13:53 50.03448 8.52788 333 ft 8 kts 247°
2026-05-06 13:53 50.03434 8.52733 335 ft 0 kts 249°
2026-05-06 13:53 50.03432 8.52724 331 ft 3 kts 249°
2026-05-06 13:53 50.03417 8.52664 332 ft 7 kts 250°
2026-05-06 13:54 50.03390 8.52598 335 ft 7 kts 202°
2026-05-06 13:54 50.03333 8.52594 335 ft 9 kts 180°
2026-05-06 13:54 50.03264 8.52595 334 ft 13 kts 180°
2026-05-06 13:54 50.03014 8.52597 332 ft 71 kts 179°
2026-05-06 13:55 50.02289 8.52604 331 ft 136 kts 179°
2026-05-06 13:55 50.01177 8.52635 511 ft 170 kts 183°
2026-05-06 13:55 50.00009 8.52665 1343 ft 168 kts 182°
2026-05-06 13:55 49.98839 8.52728 2003 ft 168 kts 180°
2026-05-06 13:56 49.97672 8.52809 2597 ft 168 kts 181°
2026-05-06 13:56 49.96508 8.52892 3177 ft 167 kts 181°
2026-05-06 13:56 49.95334 8.52973 3682 ft 174 kts 181°
2026-05-06 13:56 49.94029 8.53058 3930 ft 196 kts 181°
2026-05-06 13:57 49.92594 8.53152 4106 ft 217 kts 180°
2026-05-06 13:57 49.90996 8.53257 4222 ft 243 kts 180°
2026-05-06 13:57 49.89227 8.53373 4471 ft 267 kts 179°
2026-05-06 13:57 49.87288 8.53500 4680 ft 290 kts 179°
2026-05-06 13:58 49.85197 8.53641 4927 ft 310 kts 179°
2026-05-06 13:58 49.83004 8.53795 5483 ft 318 kts 179°
2026-05-06 13:58 49.80781 8.53951 6178 ft 321 kts 179°
2026-05-06 13:58 49.78547 8.54102 6839 ft 323 kts 180°
2026-05-06 13:59 49.76294 8.53969 7465 ft 326 kts 185°
2026-05-06 13:59 49.74024 8.53703 8147 ft 328 kts 187°
2026-05-06 13:59 49.71745 8.53385 8771 ft 331 kts 187°
2026-05-06 13:59 49.69436 8.53047 9413 ft 335 kts 187°
2026-05-06 14:00 49.67102 8.52706 10026 ft 339 kts 187°
2026-05-06 14:00 49.64744 8.52373 10636 ft 342 kts 187°
2026-05-06 14:00 49.62369 8.52052 11214 ft 345 kts 187°
2026-05-06 14:00 49.59963 8.51736 11804 ft 348 kts 186°
2026-05-06 14:01 49.57541 8.51421 12428 ft 350 kts 186°
2026-05-06 14:01 49.55110 8.51105 12999 ft 353 kts 186°
2026-05-06 14:01 49.52650 8.50782 13602 ft 355 kts 186°
2026-05-06 14:01 49.50178 8.50455 14096 ft 359 kts 186°
2026-05-06 14:02 49.47677 8.50126 14629 ft 361 kts 186°
2026-05-06 14:02 49.45157 8.49794 15151 ft 364 kts 186°
2026-05-06 14:02 49.42632 8.49464 15689 ft 365 kts 186°
2026-05-06 14:02 49.40091 8.49134 16213 ft 368 kts 185°
2026-05-06 14:03 49.37535 8.48802 16752 ft 370 kts 186°
2026-05-06 14:03 49.34958 8.48462 17218 ft 373 kts 185°
2026-05-06 14:03 49.32367 8.48122 17738 ft 375 kts 185°
2026-05-06 14:03 49.29725 8.47781 18214 ft 377 kts 185°
2026-05-06 14:04 49.27108 8.47444 18676 ft 378 kts 185°
2026-05-06 14:04 49.24477 8.47098 19054 ft 381 kts 186°
2026-05-06 14:04 49.21829 8.46750 19462 ft 383 kts 185°
2026-05-06 14:04 49.19161 8.46402 19901 ft 385 kts 185°
2026-05-06 14:05 49.16493 8.46054 20346 ft 387 kts 185°
2026-05-06 14:05 49.13811 8.45704 20795 ft 389 kts 185°
2026-05-06 14:05 49.11102 8.45355 21225 ft 391 kts 185°
2026-05-06 14:05 49.08384 8.45009 21647 ft 394 kts 185°
2026-05-06 14:06 49.05652 8.44504 22019 ft 396 kts 192°
2026-05-06 14:06 49.02954 8.43565 22405 ft 398 kts 193°
2026-05-06 14:06 49.00243 8.42612 22792 ft 400 kts 193°
2026-05-06 14:06 48.97524 8.41663 23144 ft 403 kts 193°
2026-05-06 14:07 48.94776 8.40711 23466 ft 406 kts 193°
2026-05-06 14:07 48.92017 8.39755 23766 ft 408 kts 193°
2026-05-06 14:07 48.89242 8.38794 24118 ft 409 kts 193°
2026-05-06 14:07 48.86464 8.37833 24502 ft 411 kts 193°
2026-05-06 14:08 48.83678 8.36867 24887 ft 412 kts 193°
2026-05-06 14:08 48.80875 8.35894 25288 ft 413 kts 193°
2026-05-06 14:08 48.78073 8.34921 25708 ft 414 kts 193°
2026-05-06 14:08 48.75262 8.33924 26094 ft 415 kts 193°
2026-05-06 14:09 48.72451 8.32903 26449 ft 415 kts 193°
2026-05-06 14:09 48.69644 8.31869 26785 ft 416 kts 193°
2026-05-06 14:09 48.66824 8.30827 27144 ft 417 kts 193°
2026-05-06 14:09 48.64008 8.29789 27490 ft 418 kts 193°
2026-05-06 14:10 48.61177 8.28755 27834 ft 419 kts 193°
2026-05-06 14:10 48.58328 8.27720 28157 ft 420 kts 193°
2026-05-06 14:10 48.55490 8.26693 28457 ft 421 kts 193°
2026-05-06 14:10 48.52638 8.25662 28761 ft 422 kts 193°
2026-05-06 14:11 48.49740 8.24965 29050 ft 423 kts 184°
2026-05-06 14:11 48.46805 8.24979 29326 ft 424 kts 175°
2026-05-06 14:11 48.43832 8.25621 29618 ft 426 kts 172°
2026-05-06 14:11 48.40917 8.26337 29905 ft 426 kts 172°
2026-05-06 14:12 48.37994 8.27056 30214 ft 424 kts 172°
2026-05-06 14:12 48.35074 8.27772 30520 ft 424 kts 172°
2026-05-06 14:12 48.32170 8.28480 30809 ft 422 kts 173°
2026-05-06 14:12 48.29272 8.29178 31082 ft 421 kts 173°
2026-05-06 14:13 48.26382 8.29868 31336 ft 421 kts 173°
2026-05-06 14:13 48.23493 8.30559 31584 ft 420 kts 173°
2026-05-06 14:13 48.20609 8.31255 31838 ft 420 kts 173°
2026-05-06 14:13 48.17727 8.31954 32082 ft 419 kts 173°
2026-05-06 14:14 48.14851 8.32651 32326 ft 418 kts 173°
2026-05-06 14:14 48.11986 8.33349 32579 ft 417 kts 174°
2026-05-06 14:14 48.09120 8.34048 32866 ft 416 kts 174°
2026-05-06 14:14 48.06265 8.34743 33129 ft 415 kts 174°
2026-05-06 14:15 48.03414 8.35432 33364 ft 415 kts 174°
2026-05-06 14:15 48.00573 8.36115 33599 ft 414 kts 174°
2026-05-06 14:15 47.97734 8.36798 33839 ft 413 kts 174°
2026-05-06 14:15 47.94896 8.37481 34021 ft 413 kts 174°
2026-05-06 14:16 47.92059 8.38164 34170 ft 413 kts 174°
2026-05-06 14:16 47.89218 8.38847 34347 ft 413 kts 174°
2026-05-06 14:16 47.86382 8.39530 34508 ft 413 kts 174°
2026-05-06 14:16 47.83544 8.40209 34655 ft 413 kts 174°
2026-05-06 14:17 47.80703 8.40887 34813 ft 414 kts 174°
2026-05-06 14:17 47.77866 8.41565 34858 ft 414 kts 174°
2026-05-06 14:17 47.72185 8.42929 34844 ft 413 kts 175°
2026-05-06 14:18 47.66519 8.44202 34875 ft 410 kts 177°
2026-05-06 14:18 47.60820 8.45052 34883 ft 409 kts 179°
2026-05-06 14:19 47.55152 8.45768 34891 ft 409 kts 179°
2026-05-06 14:19 47.49521 8.46538 34900 ft 410 kts 178°
2026-05-06 14:20 47.43816 8.47380 34894 ft 410 kts 178°
2026-05-06 14:20 47.38127 8.48231 34901 ft 411 kts 178°
2026-05-06 14:21 47.32437 8.49072 34901 ft 411 kts 178°
2026-05-06 14:21 47.26739 8.49904 34887 ft 411 kts 178°
2026-05-06 14:22 47.21999 8.50589 34886 ft 412 kts 178°
2026-05-06 14:22 47.16297 8.51412 34884 ft 412 kts 178°
2026-05-06 14:23 47.10576 8.52248 34884 ft 413 kts 178°
2026-05-06 14:23 47.04857 8.53085 34883 ft 413 kts 178°
2026-05-06 14:24 46.99139 8.53911 34897 ft 413 kts 179°
2026-05-06 14:24 46.93387 8.54737 34898 ft 413 kts 179°
2026-05-06 14:25 46.87702 8.55551 34910 ft 413 kts 179°
2026-05-06 14:25 46.81953 8.56373 34913 ft 412 kts 179°
2026-05-06 14:26 46.76244 8.57187 34911 ft 412 kts 179°
2026-05-06 14:26 46.70555 8.58013 34917 ft 410 kts 179°
2026-05-06 14:27 46.64884 8.58820 34933 ft 409 kts 179°
2026-05-06 14:27 46.59232 8.59622 34926 ft 408 kts 179°
2026-05-06 14:28 46.53590 8.60422 34931 ft 407 kts 179°
2026-05-06 14:28 46.47959 8.61218 34934 ft 406 kts 180°
2026-05-06 14:29 46.42340 8.62010 34933 ft 406 kts 179°
2026-05-06 14:29 46.36709 8.62797 34933 ft 406 kts 179°
2026-05-06 14:30 46.31083 8.63588 34938 ft 406 kts 179°
2026-05-06 14:30 46.25465 8.64384 34919 ft 406 kts 179°
2026-05-06 14:31 46.19841 8.65176 34921 ft 406 kts 180°
2026-05-06 14:31 46.14222 8.65960 34936 ft 406 kts 180°
2026-05-06 14:32 46.08564 8.66739 34929 ft 405 kts 180°
2026-05-06 14:32 46.02956 8.67402 34901 ft 404 kts 181°
2026-05-06 14:33 45.97351 8.68038 34904 ft 403 kts 181°
2026-05-06 14:33 45.91761 8.68669 34908 ft 403 kts 181°
2026-05-06 14:34 45.86171 8.69293 34903 ft 403 kts 181°
2026-05-06 14:34 45.80591 8.69911 34870 ft 402 kts 181°
2026-05-06 14:35 45.75015 8.70534 34871 ft 401 kts 181°
2026-05-06 14:35 45.69454 8.71159 34884 ft 401 kts 181°
2026-05-06 14:36 45.63888 8.71782 34883 ft 401 kts 181°
2026-05-06 14:36 45.58325 8.72398 34884 ft 401 kts 181°
2026-05-06 14:37 45.52774 8.73011 34888 ft 400 kts 181°
2026-05-06 14:37 45.47212 8.73624 34888 ft 400 kts 181°
2026-05-06 14:38 45.41668 8.74241 34923 ft 400 kts 182°
2026-05-06 14:38 45.36083 8.74865 34938 ft 400 kts 181°
2026-05-06 14:39 45.30538 8.75478 34937 ft 400 kts 182°
2026-05-06 14:39 45.24994 8.76079 34929 ft 400 kts 182°
2026-05-06 14:40 45.19452 8.76683 34851 ft 399 kts 182°
2026-05-06 14:40 45.13918 8.77290 34859 ft 399 kts 182°
2026-05-06 14:41 45.08398 8.77891 34857 ft 398 kts 182°
2026-05-06 14:41 45.02876 8.78487 34854 ft 398 kts 182°
2026-05-06 14:42 44.97353 8.79082 34829 ft 398 kts 182°
2026-05-06 14:42 44.91829 8.79682 34779 ft 398 kts 182°
2026-05-06 14:43 44.86312 8.80280 34813 ft 398 kts 182°
2026-05-06 14:43 44.80756 8.80885 34818 ft 398 kts 182°
2026-05-06 14:44 44.75262 8.81479 34835 ft 398 kts 182°
2026-05-06 14:45 44.66968 8.82367 34871 ft 398 kts 182°
2026-05-06 14:45 44.61407 8.82967 34886 ft 399 kts 182°
2026-05-06 14:46 44.55882 8.83564 34895 ft 398 kts 182°
2026-05-06 14:46 44.50347 8.84159 34906 ft 398 kts 182°
2026-05-06 14:47 44.44823 8.84745 34907 ft 398 kts 182°
2026-05-06 14:47 44.39298 8.85326 34908 ft 398 kts 182°
2026-05-06 14:48 44.33768 8.85915 34913 ft 398 kts 182°
2026-05-06 14:48 44.28257 8.86508 34881 ft 398 kts 182°
2026-05-06 14:49 44.22729 8.87093 34877 ft 398 kts 182°
2026-05-06 14:49 44.17206 8.87662 34884 ft 398 kts 182°
2026-05-06 14:50 44.11679 8.88239 34885 ft 398 kts 182°
2026-05-06 14:50 44.06143 8.88827 34870 ft 398 kts 182°
2026-05-06 14:51 44.00615 8.89408 34878 ft 399 kts 182°
2026-05-06 14:51 43.95051 8.89988 34889 ft 399 kts 182°
2026-05-06 14:52 43.89521 8.90569 34891 ft 399 kts 182°
2026-05-06 14:52 43.83976 8.91156 34869 ft 399 kts 182°
2026-05-06 14:53 43.78440 8.91728 34892 ft 399 kts 182°
2026-05-06 14:53 43.72904 8.92301 34898 ft 399 kts 182°
2026-05-06 14:53 43.70150 8.92591 34628 ft 396 kts 182°
2026-05-06 14:54 43.67396 8.92879 34048 ft 397 kts 182°
2026-05-06 14:54 43.64645 8.93164 33342 ft 396 kts 182°
2026-05-06 14:54 43.62828 8.93350 32889 ft 396 kts 182°
2026-05-06 14:54 43.59178 8.93727 32093 ft 392 kts 182°
2026-05-06 14:55 43.56463 8.94011 31554 ft 389 kts 182°
2026-05-06 14:55 43.54645 8.94202 31192 ft 386 kts 182°
2026-05-06 14:55 43.51977 8.94483 30682 ft 383 kts 182°
2026-05-06 14:55 43.49333 8.94762 30156 ft 379 kts 182°
2026-05-06 14:56 43.46713 8.95039 29545 ft 376 kts 182°
2026-05-06 14:56 43.44117 8.95307 29165 ft 373 kts 182°
2026-05-06 14:56 43.41513 8.95568 28929 ft 375 kts 182°
2026-05-06 14:57 43.36348 8.95563 28904 ft 370 kts 190°
2026-05-06 14:57 43.31203 8.94960 28915 ft 371 kts 190°
2026-05-06 14:58 43.26064 8.94355 28910 ft 371 kts 190°
2026-05-06 14:58 43.20917 8.93749 28915 ft 371 kts 190°
2026-05-06 14:59 43.15767 8.93151 28922 ft 372 kts 190°
2026-05-06 14:59 43.10594 8.92627 28924 ft 374 kts 187°
2026-05-06 15:00 43.05392 8.92620 28916 ft 375 kts 185°
2026-05-06 15:00 43.00158 8.92741 28924 ft 376 kts 185°
2026-05-06 15:01 42.94931 8.92858 28932 ft 376 kts 185°
2026-05-06 15:01 42.89700 8.92946 28934 ft 376 kts 185°
2026-05-06 15:02 42.84438 8.93025 28906 ft 376 kts 185°
2026-05-06 15:02 42.79201 8.93101 28920 ft 377 kts 185°
2026-05-06 15:03 42.73947 8.93187 28932 ft 377 kts 185°
2026-05-06 15:03 42.68698 8.93274 28940 ft 378 kts 185°
2026-05-06 15:04 42.63437 8.93355 28922 ft 378 kts 185°
2026-05-06 15:04 42.58175 8.93429 28942 ft 378 kts 185°
2026-05-06 15:05 42.52905 8.93505 28932 ft 378 kts 185°
2026-05-06 15:05 42.47646 8.93586 28949 ft 379 kts 185°
2026-05-06 15:06 42.42358 8.93666 28962 ft 379 kts 184°
2026-05-06 15:06 42.37085 8.93750 28964 ft 379 kts 185°
2026-05-06 15:07 42.31805 8.93833 28958 ft 379 kts 185°
2026-05-06 15:07 42.26533 8.93911 28946 ft 380 kts 185°
2026-05-06 15:08 42.21243 8.93991 28933 ft 381 kts 185°
2026-05-06 15:08 42.15938 8.94066 28940 ft 381 kts 185°
2026-05-06 15:09 42.10631 8.94147 28935 ft 382 kts 185°
2026-05-06 15:09 42.05282 8.94239 28930 ft 382 kts 185°
2026-05-06 15:10 41.99960 8.94317 28932 ft 383 kts 185°
2026-05-06 15:10 41.94645 8.94389 28942 ft 383 kts 185°
2026-05-06 15:11 41.89327 8.94472 28329 ft 378 kts 185°
2026-05-06 15:11 41.86711 8.94517 27758 ft 374 kts 185°
2026-05-06 15:11 41.84118 8.94563 27156 ft 371 kts 185°
2026-05-06 15:11 41.81545 8.94606 26585 ft 368 kts 185°
2026-05-06 15:12 41.78994 8.94643 26039 ft 365 kts 185°
2026-05-06 15:12 41.76457 8.94678 25526 ft 362 kts 185°
2026-05-06 15:12 41.73953 8.94712 25010 ft 359 kts 185°
2026-05-06 15:12 41.71466 8.94747 24513 ft 356 kts 185°
2026-05-06 15:13 41.68996 8.94784 24027 ft 353 kts 185°
2026-05-06 15:13 41.66544 8.94820 23525 ft 352 kts 185°
2026-05-06 15:13 41.64106 8.94855 22958 ft 349 kts 185°
2026-05-06 15:13 41.61685 8.94893 22300 ft 348 kts 184°
2026-05-06 15:14 41.59278 8.94931 21745 ft 346 kts 184°
2026-05-06 15:14 41.56875 8.94969 21215 ft 344 kts 184°
2026-05-06 15:14 41.54490 8.95004 20675 ft 342 kts 184°
2026-05-06 15:14 41.52115 8.95039 20138 ft 340 kts 184°
2026-05-06 15:15 41.49758 8.95073 19602 ft 339 kts 184°
2026-05-06 15:15 41.47399 8.95109 19064 ft 337 kts 184°
2026-05-06 15:15 41.45056 8.95146 18537 ft 336 kts 184°
2026-05-06 15:15 41.42723 8.95181 17985 ft 335 kts 184°
2026-05-06 15:16 41.40408 8.95215 17444 ft 332 kts 183°
2026-05-06 15:16 41.38105 8.95250 16898 ft 330 kts 183°
2026-05-06 15:16 41.35818 8.95286 16346 ft 328 kts 183°
2026-05-06 15:16 41.33532 8.95320 15796 ft 326 kts 183°
2026-05-06 15:17 41.31267 8.95352 15268 ft 325 kts 183°
2026-05-06 15:17 41.29012 8.95384 14745 ft 323 kts 183°
2026-05-06 15:17 41.26768 8.95414 14228 ft 322 kts 183°
2026-05-06 15:17 41.24534 8.95444 13715 ft 321 kts 182°
2026-05-06 15:18 41.22308 8.95475 13165 ft 319 kts 182°
2026-05-06 15:18 41.20096 8.95507 12606 ft 317 kts 182°
2026-05-06 15:18 41.17894 8.95541 12065 ft 316 kts 182°
2026-05-06 15:18 41.15706 8.95572 11558 ft 313 kts 182°
2026-05-06 15:19 41.13534 8.95603 11065 ft 311 kts 182°
2026-05-06 15:19 41.11378 8.95634 10583 ft 309 kts 182°
2026-05-06 15:19 41.09237 8.95663 10117 ft 306 kts 182°
2026-05-06 15:19 41.07083 8.95693 9631 ft 304 kts 182°
2026-05-06 15:20 41.04991 8.95723 9386 ft 294 kts 182°
2026-05-06 15:20 41.02987 8.95756 9248 ft 281 kts 182°
2026-05-06 15:20 41.01057 8.95789 8971 ft 275 kts 182°
2026-05-06 15:20 40.99150 8.95816 8570 ft 274 kts 181°
2026-05-06 15:21 40.97254 8.95841 8133 ft 273 kts 181°
2026-05-06 15:21 40.95354 8.95869 7717 ft 272 kts 181°
2026-05-06 15:21 40.93467 8.95897 7327 ft 272 kts 181°
2026-05-06 15:21 40.91586 8.95926 6947 ft 271 kts 181°
2026-05-06 15:22 40.89693 8.95955 6583 ft 270 kts 181°
2026-05-06 15:22 40.87820 8.95982 6206 ft 269 kts 181°
2026-05-06 15:22 40.85967 8.96007 6004 ft 260 kts 181°
2026-05-06 15:22 40.84218 8.96032 6006 ft 243 kts 181°
2026-05-06 15:23 40.82556 8.96057 6014 ft 238 kts 181°
2026-05-06 15:23 40.80903 8.96082 6016 ft 238 kts 181°
2026-05-06 15:23 40.79246 8.96107 6016 ft 238 kts 181°
2026-05-06 15:23 40.77587 8.96131 6014 ft 237 kts 180°
2026-05-06 15:24 40.75946 8.96176 6013 ft 237 kts 176°
2026-05-06 15:24 40.74342 8.96678 6014 ft 238 kts 159°
2026-05-06 15:24 40.72910 8.97769 6014 ft 240 kts 146°
2026-05-06 15:24 40.71545 8.99053 6014 ft 241 kts 146°
2026-05-06 15:25 40.70199 9.00305 6029 ft 232 kts 147°
2026-05-06 15:25 40.68891 9.01519 6017 ft 230 kts 147°
2026-05-06 15:25 40.67582 9.02735 6017 ft 229 kts 145°
2026-05-06 15:25 40.66560 9.04326 6016 ft 233 kts 115°
2026-05-06 15:26 40.66321 9.06430 6016 ft 237 kts 83°
2026-05-06 15:26 40.66958 9.08421 6015 ft 239 kts 56°
2026-05-06 15:26 40.67900 9.10241 6015 ft 242 kts 56°
2026-05-06 15:26 40.68853 9.12073 6016 ft 243 kts 56°
2026-05-06 15:27 40.69804 9.13905 6019 ft 243 kts 56°
2026-05-06 15:27 40.70760 9.15751 5923 ft 243 kts 56°
2026-05-06 15:27 40.71712 9.17591 5769 ft 242 kts 56°
2026-05-06 15:27 40.72660 9.19426 5621 ft 242 kts 56°
2026-05-06 15:28 40.73601 9.21250 5465 ft 237 kts 56°
2026-05-06 15:28 40.74216 9.22442 5364 ft 230 kts 56°
2026-05-06 15:28 40.75112 9.24129 5219 ft 219 kts 54°
2026-05-06 15:28 40.76004 9.25686 5064 ft 208 kts 53°
2026-05-06 15:29 40.76881 9.27184 4763 ft 205 kts 52°
2026-05-06 15:29 40.77736 9.28683 4427 ft 203 kts 54°
2026-05-06 15:29 40.78527 9.30177 4253 ft 193 kts 55°
2026-05-06 15:29 40.79278 9.31605 4014 ft 187 kts 56°
2026-05-06 15:30 40.80013 9.33003 3777 ft 184 kts 55°
2026-05-06 15:30 40.80736 9.34375 3487 ft 181 kts 56°
2026-05-06 15:30 40.81450 9.35731 3217 ft 179 kts 54°
2026-05-06 15:30 40.82161 9.37082 2931 ft 179 kts 54°
2026-05-06 15:31 40.82865 9.38420 2642 ft 176 kts 54°
2026-05-06 15:31 40.83556 9.39735 2371 ft 174 kts 54°
2026-05-06 15:31 40.84239 9.41034 2101 ft 169 kts 55°
2026-05-06 15:32 40.85503 9.43440 1601 ft 148 kts 56°
2026-05-06 15:32 40.86075 9.44528 1368 ft 143 kts 55°
2026-05-06 15:32 40.86635 9.45597 1151 ft 142 kts 56°
2026-05-06 15:32 40.87204 9.46682 936 ft 141 kts 56°
2026-05-06 15:33 40.87758 9.47736 748 ft 140 kts 57°
2026-05-06 15:33 40.88311 9.48794 502 ft 139 kts 53°
2026-05-06 15:33 40.88867 9.49850 307 ft 142 kts 55°
2026-05-06 15:33 40.89409 9.50888 67 ft 138 kts 53°
2026-05-06 15:34 40.89919 9.51849 48 ft 113 kts 56°
2026-05-06 15:34 40.90249 9.52492 35 ft 34 kts 55°
2026-05-06 15:34 40.90334 9.52653 34 ft 10 kts 54°
2026-05-06 15:34 40.90391 9.52690 34 ft 10 kts
2026-05-06 15:35 40.90450 9.52649 34 ft 10 kts 300°
2026-05-06 15:35 40.90455 9.52547 34 ft 12 kts 272°
2026-05-06 15:35 40.90427 9.52442 34 ft 13 kts 235°
2026-05-06 15:35 40.90372 9.52338 34 ft 15 kts 235°
2026-05-06 15:36 40.90312 9.52224 34 ft 16 kts 235°
2026-05-06 15:36 40.90247 9.52099 33 ft 17 kts 235°
2026-05-06 15:36 40.90190 9.51991 33 ft 10 kts 235°
2026-05-06 15:36 40.90179 9.51899 34 ft 11 kts 280°
2026-05-06 15:37 40.90197 9.51816 34 ft 9 kts 303°
2026-05-06 15:37 40.90221 9.51769 34 ft 6 kts 267°
2026-05-06 15:37 40.90199 9.51718 34 ft 6 kts 248°
2026-05-06 15:37 40.90218 9.51690 34 ft 5 kts 318°
2026-05-06 15:38 40.90238 9.51671 34 ft 2 kts 324°
2026-05-06 15:38 40.90245 9.51664 34 ft 0 kts 324°